EZY26QC EGCC-LTBS

Flight info

Callsign EZY26QC
Flight time 3h 55m
Altitude 35000
Route SANB1Y SANBA N859 HON L15 FINMA DCT CHT DCT ITVIP DCT KONAN DCT KOK UL607 FERDI DCT REMBA DCT ARCKY DCT LIRSU DCT KRH DCT KUNOD DCT GEDSO DCT VEKEN DCT NEMEK DCT TUPUS DCT MONID DCT ETOBI DCT EDALA DCT OSLUD DCT MEDUX UM867 KOGAT DCT DISOR DCT PEREN DCT STINO DCT RIKSO UP14 ODNOD UT491 SONUP SONU1Z
Aircraft A320/M-SDE3FGHIRWY/LB1

Departure

Time 2026-04-24 11:37
Airport Manchester Airport (EGCC)

Arrival

Time 2026-04-24 15:32
Airport Dalaman International Airport (LTBS)
Time Latitude Longitude Altitude Speed Heading
2026-04-24 10:55 53.36918 -2.28740 255 ft 0 kts 135°
2026-04-24 11:20 53.36923 -2.28748 255 ft 2 kts 135°
2026-04-24 11:20 53.36936 -2.28771 255 ft 3 kts 135°
2026-04-24 11:21 53.36948 -2.28789 255 ft 3 kts 175°
2026-04-24 11:21 53.36962 -2.28781 255 ft 3 kts 222°
2026-04-24 11:21 53.36967 -2.28773 255 ft 0 kts 225°
2026-04-24 11:21 53.36958 -2.28789 255 ft 2 kts 225°
2026-04-24 11:22 53.36953 -2.28796 255 ft 0 kts 225°
2026-04-24 11:24 53.36947 -2.28807 255 ft 4 kts 225°
2026-04-24 11:24 53.36922 -2.28848 255 ft 1 kts 224°
2026-04-24 11:25 53.36917 -2.28855 255 ft 2 kts 224°
2026-04-24 11:25 53.36900 -2.28884 255 ft 3 kts 225°
2026-04-24 11:25 53.36883 -2.28913 255 ft 6 kts 225°
2026-04-24 11:25 53.36871 -2.28933 255 ft 0 kts 224°
2026-04-24 11:26 53.36869 -2.28937 255 ft 3 kts 224°
2026-04-24 11:26 53.36834 -2.28993 255 ft 9 kts 224°
2026-04-24 11:27 53.36786 -2.29032 255 ft 7 kts 200°
2026-04-24 11:27 53.36746 -2.29038 255 ft 6 kts 160°
2026-04-24 11:27 53.36705 -2.28972 255 ft 10 kts 134°
2026-04-24 11:27 53.36661 -2.28902 255 ft 7 kts 147°
2026-04-24 11:28 53.36609 -2.28857 255 ft 10 kts 133°
2026-04-24 11:28 53.36567 -2.28741 255 ft 13 kts 126°
2026-04-24 11:28 53.36507 -2.28634 255 ft 12 kts 134°
2026-04-24 11:28 53.36445 -2.28530 255 ft 13 kts 135°
2026-04-24 11:29 53.36407 -2.28428 255 ft 9 kts 110°
2026-04-24 11:29 53.36371 -2.28328 255 ft 13 kts 135°
2026-04-24 11:29 53.36289 -2.28192 255 ft 19 kts 135°
2026-04-24 11:29 53.36192 -2.28027 255 ft 19 kts 134°
2026-04-24 11:30 53.36102 -2.27901 255 ft 17 kts 142°
2026-04-24 11:30 53.36010 -2.27783 255 ft 12 kts 142°
2026-04-24 11:30 53.35942 -2.27728 255 ft 10 kts 173°
2026-04-24 11:30 53.35868 -2.27729 255 ft 12 kts 183°
2026-04-24 11:31 53.35801 -2.27710 251 ft 10 kts 136°
2026-04-24 11:31 53.35735 -2.27643 249 ft 14 kts 161°
2026-04-24 11:31 53.35665 -2.27584 246 ft 12 kts 141°
2026-04-24 11:31 53.35617 -2.27496 245 ft 9 kts 104°
2026-04-24 11:32 53.35647 -2.27399 248 ft 11 kts 51°
2026-04-24 11:32 53.35704 -2.27280 255 ft 18 kts 51°
2026-04-24 11:32 53.35786 -2.27112 255 ft 16 kts 51°
2026-04-24 11:32 53.35840 -2.26969 255 ft 13 kts 58°
2026-04-24 11:33 53.35898 -2.26842 255 ft 15 kts 55°
2026-04-24 11:33 53.35944 -2.26726 255 ft 13 kts 52°
2026-04-24 11:33 53.36021 -2.26565 255 ft 21 kts 51°
2026-04-24 11:33 53.36113 -2.26377 255 ft 21 kts 51°
2026-04-24 11:34 53.36173 -2.26263 256 ft 9 kts 33°
2026-04-24 11:34 53.36223 -2.26193 255 ft 15 kts 51°
2026-04-24 11:34 53.36267 -2.26099 255 ft 6 kts 58°
2026-04-24 11:34 53.36269 -2.26011 255 ft 10 kts 99°
2026-04-24 11:35 53.36289 -2.25893 255 ft 12 kts 76°
2026-04-24 11:35 53.36273 -2.25792 259 ft 5 kts 127°
2026-04-24 11:35 53.36252 -2.25762 260 ft 6 kts 146°
2026-04-24 11:35 53.36211 -2.25768 260 ft 9 kts 217°
2026-04-24 11:36 53.36144 -2.25903 259 ft 33 kts 231°
2026-04-24 11:36 53.35844 -2.26524 270 ft 100 kts 231°
2026-04-24 11:36 53.35280 -2.27688 240 ft 156 kts 231°
2026-04-24 11:36 53.34552 -2.29217 638 ft 169 kts 231°
2026-04-24 11:37 53.33821 -2.30764 1340 ft 170 kts 231°
2026-04-24 11:37 53.33054 -2.32375 1722 ft 186 kts 230°
2026-04-24 11:37 53.32320 -2.34266 2054 ft 206 kts 252°
2026-04-24 11:37 53.32346 -2.36763 2286 ft 231 kts 284°
2026-04-24 11:38 53.32618 -2.39524 2684 ft 251 kts 270°
2026-04-24 11:38 53.32268 -2.42445 3169 ft 263 kts 242°
2026-04-24 11:38 53.31059 -2.44686 3934 ft 264 kts 209°
2026-04-24 11:38 53.29291 -2.45433 4675 ft 267 kts 178°
2026-04-24 11:39 53.27444 -2.45051 5508 ft 267 kts 163°
2026-04-24 11:39 53.25729 -2.43864 6348 ft 268 kts 150°
2026-04-24 11:39 53.24084 -2.42348 7126 ft 272 kts 150°
2026-04-24 11:39 53.22975 -2.41351 7597 ft 274 kts 151°
2026-04-24 11:40 53.21285 -2.39854 8349 ft 276 kts 151°
2026-04-24 11:40 53.19575 -2.38357 9084 ft 280 kts 151°
2026-04-24 11:40 53.17837 -2.36838 9800 ft 284 kts 151°
2026-04-24 11:40 53.16075 -2.35296 10469 ft 289 kts 151°
2026-04-24 11:41 53.14226 -2.33679 10680 ft 311 kts 151°
2026-04-24 11:41 53.12239 -2.31939 10822 ft 334 kts 151°
2026-04-24 11:41 53.10116 -2.30081 10945 ft 355 kts 152°
2026-04-24 11:41 53.07868 -2.28120 11149 ft 372 kts 152°
2026-04-24 11:42 53.05559 -2.26113 11657 ft 378 kts 152°
2026-04-24 11:42 53.03216 -2.24081 12238 ft 381 kts 152°
2026-04-24 11:42 53.00856 -2.22033 12848 ft 384 kts 152°
2026-04-24 11:42 52.98477 -2.19972 13454 ft 387 kts 152°
2026-04-24 11:43 52.96085 -2.17901 14125 ft 388 kts 152°
2026-04-24 11:43 52.93688 -2.15824 14715 ft 389 kts 152°
2026-04-24 11:43 52.91271 -2.13731 15217 ft 393 kts 152°
2026-04-24 11:43 52.88833 -2.11628 15729 ft 396 kts 152°
2026-04-24 11:44 52.86383 -2.09516 16273 ft 399 kts 152°
2026-04-24 11:44 52.83915 -2.07389 16809 ft 401 kts 152°
2026-04-24 11:44 52.81433 -2.05250 17347 ft 403 kts 153°
2026-04-24 11:44 52.78943 -2.03108 17871 ft 405 kts 153°
2026-04-24 11:45 52.76431 -2.00952 18356 ft 408 kts 153°
2026-04-24 11:45 52.73908 -1.98788 18806 ft 410 kts 153°
2026-04-24 11:45 52.71370 -1.96611 19250 ft 411 kts 153°
2026-04-24 11:45 52.68829 -1.94438 19701 ft 413 kts 153°
2026-04-24 11:46 52.66274 -1.92262 20111 ft 415 kts 153°
2026-04-24 11:46 52.63697 -1.90076 20511 ft 416 kts 153°
2026-04-24 11:46 52.61150 -1.87914 20901 ft 418 kts 153°
2026-04-24 11:46 52.58557 -1.85716 21280 ft 420 kts 153°
2026-04-24 11:47 52.55956 -1.83509 21645 ft 422 kts 153°
2026-04-24 11:47 52.53341 -1.81286 21999 ft 424 kts 153°
2026-04-24 11:47 52.50719 -1.79060 22339 ft 426 kts 153°
2026-04-24 11:47 52.48082 -1.76825 22706 ft 427 kts 153°
2026-04-24 11:48 52.45438 -1.74592 23054 ft 428 kts 153°
2026-04-24 11:48 52.42786 -1.72357 23380 ft 430 kts 153°
2026-04-24 11:48 52.40117 -1.70110 23699 ft 432 kts 153°
2026-04-24 11:48 52.37461 -1.67788 23990 ft 434 kts 149°
2026-04-24 11:49 52.34996 -1.64934 24232 ft 436 kts 141°
2026-04-24 11:49 52.32797 -1.61486 24452 ft 440 kts 134°
2026-04-24 11:49 52.30687 -1.57849 24678 ft 442 kts 134°
2026-04-24 11:49 52.28554 -1.54196 24886 ft 445 kts 135°
2026-04-24 11:50 52.26409 -1.50533 25077 ft 448 kts 136°
2026-04-24 11:50 52.24240 -1.46839 25184 ft 453 kts 136°
2026-04-24 11:50 52.22057 -1.43129 25403 ft 454 kts 136°
2026-04-24 11:50 52.19863 -1.39406 25602 ft 456 kts 136°
2026-04-24 11:51 52.17659 -1.35673 25780 ft 458 kts 136°
2026-04-24 11:51 52.15440 -1.31928 25969 ft 460 kts 136°
2026-04-24 11:51 52.13222 -1.28183 26334 ft 458 kts 136°
2026-04-24 11:51 52.11003 -1.24439 26523 ft 461 kts 136°
2026-04-24 11:52 52.08772 -1.20679 26645 ft 464 kts 136°
2026-04-24 11:52 52.06519 -1.16889 26770 ft 468 kts 137°
2026-04-24 11:52 52.04253 -1.13081 26907 ft 470 kts 137°
2026-04-24 11:52 52.01972 -1.09252 27026 ft 473 kts 137°
2026-04-24 11:53 51.99919 -1.05045 27173 ft 481 kts 123°
2026-04-24 11:53 51.98470 -1.00209 27342 ft 485 kts 116°
2026-04-24 11:53 51.97117 -0.95191 27534 ft 486 kts 116°
2026-04-24 11:53 51.95773 -0.90155 27780 ft 486 kts 116°
2026-04-24 11:54 51.94421 -0.85059 27992 ft 487 kts 116°
2026-04-24 11:54 51.93099 -0.80078 28213 ft 488 kts 116°
2026-04-24 11:54 51.91752 -0.75031 28425 ft 489 kts 116°
2026-04-24 11:54 51.90394 -0.69986 28639 ft 490 kts 116°
2026-04-24 11:55 51.89026 -0.64934 28839 ft 490 kts 116°
2026-04-24 11:55 51.87651 -0.59876 29068 ft 491 kts 116°
2026-04-24 11:55 51.86271 -0.54805 29278 ft 493 kts 116°
2026-04-24 11:55 51.84887 -0.49733 29497 ft 493 kts 116°
2026-04-24 11:56 51.83500 -0.44656 29711 ft 494 kts 116°
2026-04-24 11:56 51.82110 -0.39568 29936 ft 495 kts 116°
2026-04-24 11:56 51.80714 -0.34470 30107 ft 496 kts 116°
2026-04-24 11:56 51.79316 -0.29379 30411 ft 495 kts 116°
2026-04-24 11:57 51.77920 -0.24300 30659 ft 494 kts 116°
2026-04-24 11:57 51.76523 -0.19237 30895 ft 493 kts 116°
2026-04-24 11:57 51.75126 -0.14184 31132 ft 492 kts 116°
2026-04-24 11:57 51.73730 -0.09142 31363 ft 492 kts 116°
2026-04-24 11:58 51.72336 -0.04119 31588 ft 491 kts 116°
2026-04-24 11:58 51.70937 0.00900 31795 ft 490 kts 117°
2026-04-24 11:58 51.69540 0.05895 32050 ft 488 kts 117°
2026-04-24 11:58 51.68143 0.10881 32303 ft 487 kts 117°
2026-04-24 11:59 51.66752 0.15851 32540 ft 486 kts 117°
2026-04-24 11:59 51.65363 0.20810 32778 ft 485 kts 117°
2026-04-24 11:59 51.63977 0.25749 33014 ft 484 kts 117°
2026-04-24 11:59 51.62606 0.30616 33243 ft 483 kts 117°
2026-04-24 12:00 51.61218 0.35531 33466 ft 482 kts 117°
2026-04-24 12:00 51.59829 0.40440 33702 ft 481 kts 117°
2026-04-24 12:00 51.58443 0.45331 33932 ft 481 kts 117°
2026-04-24 12:00 51.57055 0.50219 34141 ft 480 kts 117°
2026-04-24 12:01 51.55674 0.55078 34430 ft 476 kts 117°
2026-04-24 12:01 51.54297 0.59910 34676 ft 474 kts 117°
2026-04-24 12:01 51.52922 0.64723 34889 ft 473 kts 117°
2026-04-24 12:01 51.51551 0.69507 35086 ft 472 kts 117°
2026-04-24 12:02 51.50175 0.74291 35268 ft 471 kts 117°
2026-04-24 12:02 51.48800 0.79064 35349 ft 472 kts 117°
2026-04-24 12:02 51.46029 0.88637 35356 ft 473 kts 117°
2026-04-24 12:03 51.43255 0.98214 35357 ft 473 kts 118°
2026-04-24 12:03 51.40482 1.07768 35356 ft 472 kts 118°
2026-04-24 12:04 51.37698 1.17298 35358 ft 472 kts 118°
2026-04-24 12:04 51.35021 1.26448 35356 ft 472 kts 118°
2026-04-24 12:05 51.32216 1.35949 35328 ft 472 kts 118°
2026-04-24 12:05 51.29435 1.45366 35344 ft 471 kts 118°
2026-04-24 12:06 51.26636 1.54821 35356 ft 471 kts 118°
2026-04-24 12:06 51.23827 1.64254 35361 ft 470 kts 118°
2026-04-24 12:07 51.21011 1.73670 35358 ft 470 kts 118°
2026-04-24 12:07 51.18189 1.83068 35358 ft 470 kts 118°
2026-04-24 12:08 51.15358 1.92446 35336 ft 469 kts 118°
2026-04-24 12:08 51.13121 2.02209 35340 ft 473 kts 103°
2026-04-24 12:09 51.12408 2.12638 35338 ft 474 kts 96°
2026-04-24 12:09 51.11855 2.23107 35337 ft 475 kts 97°
2026-04-24 12:10 51.11278 2.33567 35340 ft 475 kts 97°
2026-04-24 12:11 51.10395 2.49266 35343 ft 475 kts 97°
2026-04-24 12:11 51.09792 2.59729 35348 ft 474 kts 97°
2026-04-24 12:12 51.08602 2.69978 35347 ft 470 kts 109°
2026-04-24 12:12 51.06785 2.79972 35344 ft 470 kts 108°
2026-04-24 12:13 51.04990 2.89897 35340 ft 470 kts 108°
2026-04-24 12:13 51.03174 2.99865 35340 ft 469 kts 108°
2026-04-24 12:14 51.01349 3.09814 35333 ft 469 kts 109°
2026-04-24 12:14 50.99513 3.19757 35331 ft 469 kts 109°
2026-04-24 12:15 50.97662 3.29690 35324 ft 469 kts 109°
2026-04-24 12:15 50.95809 3.39616 35314 ft 469 kts 109°
2026-04-24 12:16 50.93950 3.49518 35321 ft 468 kts 109°
2026-04-24 12:16 50.92082 3.59400 35313 ft 468 kts 109°
2026-04-24 12:17 50.90209 3.69275 35311 ft 468 kts 109°
2026-04-24 12:17 50.88335 3.79135 35308 ft 468 kts 110°
2026-04-24 12:18 50.86445 3.88989 35300 ft 468 kts 110°
2026-04-24 12:18 50.84542 3.98837 35296 ft 468 kts 110°
2026-04-24 12:19 50.82635 4.08680 35295 ft 468 kts 110°
2026-04-24 12:19 50.80726 4.18523 35299 ft 469 kts 110°
2026-04-24 12:20 50.78799 4.28367 35293 ft 468 kts 111°
2026-04-24 12:20 50.76863 4.38189 35311 ft 468 kts 111°
2026-04-24 12:21 50.74918 4.47991 35313 ft 467 kts 111°
2026-04-24 12:21 50.72975 4.57780 35311 ft 467 kts 111°
2026-04-24 12:22 50.71028 4.67553 35306 ft 467 kts 111°
2026-04-24 12:22 50.69086 4.77255 35311 ft 467 kts 111°
2026-04-24 12:23 50.67113 4.87008 35309 ft 467 kts 112°
2026-04-24 12:23 50.64760 4.96465 35304 ft 462 kts 119°
2026-04-24 12:24 50.62076 5.05664 35301 ft 462 kts 119°
2026-04-24 12:24 50.59380 5.14845 35296 ft 462 kts 119°
2026-04-24 12:25 50.56679 5.24024 35292 ft 462 kts 119°
2026-04-24 12:25 50.53977 5.33197 35296 ft 462 kts 119°
2026-04-24 12:26 50.51266 5.42352 35283 ft 462 kts 119°
2026-04-24 12:26 50.48547 5.51484 35289 ft 461 kts 119°
2026-04-24 12:27 50.46290 5.59057 35273 ft 461 kts 119°
2026-04-24 12:27 50.43568 5.68166 35277 ft 461 kts 119°
2026-04-24 12:28 50.40832 5.77253 35269 ft 461 kts 119°
2026-04-24 12:28 50.38095 5.86330 35268 ft 460 kts 119°
2026-04-24 12:29 50.35349 5.95394 35248 ft 461 kts 119°
2026-04-24 12:29 50.32594 6.04453 35248 ft 461 kts 119°
2026-04-24 12:30 50.29832 6.13499 35232 ft 461 kts 120°
2026-04-24 12:30 50.26880 6.22373 35233 ft 459 kts 122°
2026-04-24 12:31 50.23749 6.31071 35219 ft 459 kts 123°
2026-04-24 12:31 50.20616 6.39752 35225 ft 458 kts 122°
2026-04-24 12:32 50.17187 6.48067 35215 ft 453 kts 133°
2026-04-24 12:32 50.13138 6.55609 35208 ft 453 kts 133°
2026-04-24 12:33 50.09074 6.63118 35214 ft 453 kts 134°
2026-04-24 12:33 50.05028 6.70577 35215 ft 453 kts 133°
2026-04-24 12:34 50.00956 6.78067 35217 ft 454 kts 134°
2026-04-24 12:34 49.96876 6.85551 35214 ft 454 kts 133°
2026-04-24 12:35 49.92793 6.93012 35214 ft 453 kts 133°
2026-04-24 12:35 49.88707 7.00478 35215 ft 453 kts 133°
2026-04-24 12:36 49.84620 7.07919 35215 ft 453 kts 133°
2026-04-24 12:36 49.80529 7.15337 35221 ft 453 kts 133°
2026-04-24 12:37 49.76432 7.22743 35219 ft 453 kts 133°
2026-04-24 12:37 49.72329 7.30143 35215 ft 453 kts 133°
2026-04-24 12:38 49.68215 7.37523 35221 ft 453 kts 133°
2026-04-24 12:38 49.64100 7.44903 35230 ft 453 kts 133°
2026-04-24 12:39 49.55859 7.59624 35205 ft 453 kts 133°
2026-04-24 12:40 49.51730 7.66964 35205 ft 453 kts 133°
2026-04-24 12:40 49.47595 7.74295 35192 ft 454 kts 133°
2026-04-24 12:41 49.43447 7.81618 35205 ft 454 kts 133°
2026-04-24 12:41 49.39300 7.88934 35217 ft 454 kts 133°
2026-04-24 12:42 49.35174 7.96193 35214 ft 454 kts 133°
2026-04-24 12:42 49.31013 8.03476 35215 ft 454 kts 133°
2026-04-24 12:43 49.26849 8.10754 35209 ft 454 kts 133°
2026-04-24 12:43 49.22678 8.18031 35208 ft 455 kts 132°
2026-04-24 12:44 49.18504 8.25286 35214 ft 454 kts 132°
2026-04-24 12:44 49.14330 8.32512 35222 ft 453 kts 133°
2026-04-24 12:45 49.10159 8.39731 35208 ft 453 kts 133°
2026-04-24 12:45 49.05975 8.46939 35211 ft 453 kts 133°
2026-04-24 12:46 49.01792 8.54125 35210 ft 453 kts 133°
2026-04-24 12:46 48.97592 8.61281 35201 ft 453 kts 134°
2026-04-24 12:47 48.93275 8.68262 35207 ft 452 kts 135°
2026-04-24 12:47 48.88912 8.75154 35211 ft 452 kts 135°
2026-04-24 12:48 48.84558 8.82060 35198 ft 452 kts 134°
2026-04-24 12:48 48.80215 8.88989 35190 ft 453 kts 134°
2026-04-24 12:49 48.75873 8.95923 35190 ft 453 kts 134°
2026-04-24 12:49 48.71522 9.02843 35196 ft 454 kts 134°
2026-04-24 12:50 48.67168 9.09741 35199 ft 453 kts 134°
2026-04-24 12:50 48.62840 9.16570 35208 ft 452 kts 134°
2026-04-24 12:51 48.58482 9.23432 35188 ft 453 kts 134°
2026-04-24 12:51 48.54114 9.30293 35183 ft 453 kts 134°
2026-04-24 12:52 48.49735 9.37153 35172 ft 454 kts 134°
2026-04-24 12:52 48.45357 9.44003 35174 ft 454 kts 134°
2026-04-24 12:53 48.40967 9.50847 35168 ft 455 kts 134°
2026-04-24 12:53 48.36560 9.57694 35163 ft 456 kts 134°
2026-04-24 12:54 48.32317 9.64776 35165 ft 456 kts 128°
2026-04-24 12:54 48.28341 9.72202 35155 ft 457 kts 128°
2026-04-24 12:55 48.24334 9.79630 35168 ft 457 kts 128°
2026-04-24 12:55 48.20336 9.87038 35172 ft 457 kts 128°
2026-04-24 12:56 48.16362 9.94374 35174 ft 456 kts 128°
2026-04-24 12:56 48.12353 10.01743 35173 ft 456 kts 128°
2026-04-24 12:57 48.08339 10.09110 35203 ft 456 kts 128°
2026-04-24 12:57 48.04325 10.16462 35199 ft 456 kts 128°
2026-04-24 12:58 48.00309 10.23807 35194 ft 456 kts 128°
2026-04-24 12:58 47.96283 10.31136 35190 ft 456 kts 128°
2026-04-24 12:59 47.92255 10.38457 35184 ft 456 kts 128°
2026-04-24 12:59 47.88222 10.45753 35190 ft 456 kts 128°
2026-04-24 13:00 47.84187 10.53037 35187 ft 456 kts 128°
2026-04-24 13:00 47.80153 10.60306 35190 ft 456 kts 128°
2026-04-24 13:01 47.76105 10.67586 35178 ft 456 kts 128°
2026-04-24 13:01 47.72054 10.74835 35174 ft 457 kts 128°
2026-04-24 13:02 47.67995 10.82086 35170 ft 456 kts 128°
2026-04-24 13:02 47.63941 10.89314 35178 ft 456 kts 128°
2026-04-24 13:03 47.59888 10.96538 35165 ft 456 kts 128°
2026-04-24 13:03 47.55853 11.03703 35154 ft 456 kts 128°
2026-04-24 13:04 47.51774 11.10911 35140 ft 456 kts 128°
2026-04-24 13:04 47.47695 11.18104 35134 ft 457 kts 128°
2026-04-24 13:05 47.43608 11.25297 35113 ft 457 kts 128°
2026-04-24 13:05 47.39519 11.32463 35119 ft 456 kts 128°
2026-04-24 13:06 47.35425 11.39623 35111 ft 457 kts 128°
2026-04-24 13:06 47.31324 11.46773 35107 ft 457 kts 128°
2026-04-24 13:07 47.27217 11.53924 35105 ft 457 kts 128°
2026-04-24 13:07 47.23111 11.61060 35109 ft 457 kts 128°
2026-04-24 13:08 47.18994 11.68176 35115 ft 457 kts 127°
2026-04-24 13:08 47.14870 11.75283 35122 ft 457 kts 127°
2026-04-24 13:09 47.08743 11.85991 35108 ft 455 kts 122°
2026-04-24 13:09 47.05722 11.94044 35108 ft 450 kts 113°
2026-04-24 13:10 47.02971 12.02295 35107 ft 450 kts 113°
2026-04-24 13:10 47.00222 12.10474 35106 ft 450 kts 113°
2026-04-24 13:11 46.97452 12.18710 35095 ft 451 kts 113°
2026-04-24 13:11 46.94671 12.26930 35113 ft 450 kts 114°
2026-04-24 13:12 46.91888 12.35146 35122 ft 450 kts 113°
2026-04-24 13:12 46.89108 12.43352 35126 ft 450 kts 113°
2026-04-24 13:13 46.86317 12.51546 35114 ft 450 kts 113°
2026-04-24 13:13 46.83522 12.59720 35106 ft 450 kts 113°
2026-04-24 13:14 46.81204 12.66506 35094 ft 449 kts 113°
2026-04-24 13:14 46.78400 12.74661 35090 ft 449 kts 113°
2026-04-24 13:15 46.75594 12.82810 35083 ft 449 kts 113°
2026-04-24 13:15 46.72783 12.90949 35079 ft 449 kts 113°
2026-04-24 13:16 46.69957 12.99064 35077 ft 449 kts 113°
2026-04-24 13:16 46.67138 13.07186 35074 ft 449 kts 113°
2026-04-24 13:17 46.64311 13.15301 35072 ft 450 kts 113°
2026-04-24 13:17 46.61465 13.23403 35071 ft 450 kts 113°
2026-04-24 13:18 46.58621 13.31496 35075 ft 449 kts 113°
2026-04-24 13:18 46.55609 13.39455 35075 ft 452 kts 121°
2026-04-24 13:19 46.51923 13.46869 35085 ft 453 kts 122°
2026-04-24 13:19 46.48245 13.54205 35079 ft 453 kts 122°
2026-04-24 13:20 46.44535 13.61586 35078 ft 453 kts 122°
2026-04-24 13:20 46.40823 13.68964 35073 ft 452 kts 122°
2026-04-24 13:21 46.37107 13.76330 35085 ft 453 kts 122°
2026-04-24 13:21 46.33393 13.83686 35089 ft 452 kts 122°
2026-04-24 13:22 46.29678 13.91020 35080 ft 451 kts 122°
2026-04-24 13:22 46.25962 13.98332 35086 ft 451 kts 122°
2026-04-24 13:23 46.22239 14.05635 35075 ft 451 kts 122°
2026-04-24 13:23 46.18523 14.12920 35083 ft 451 kts 122°
2026-04-24 13:24 46.14799 14.20197 35078 ft 450 kts 122°
2026-04-24 13:24 46.11067 14.27449 35072 ft 450 kts 122°
2026-04-24 13:25 46.07330 14.34697 35064 ft 450 kts 122°
2026-04-24 13:25 46.03623 14.41885 35079 ft 450 kts 122°
2026-04-24 13:26 45.99894 14.49101 35079 ft 449 kts 122°
2026-04-24 13:26 45.96159 14.56300 35076 ft 449 kts 122°
2026-04-24 13:27 45.92397 14.63528 35071 ft 449 kts 122°
2026-04-24 13:27 45.88685 14.70650 35066 ft 448 kts 122°
2026-04-24 13:28 45.84948 14.77811 35068 ft 448 kts 122°
2026-04-24 13:28 45.81201 14.84956 35068 ft 448 kts 122°
2026-04-24 13:29 45.77453 14.92082 35067 ft 448 kts 122°
2026-04-24 13:29 45.73699 14.99203 35070 ft 448 kts 123°
2026-04-24 13:30 45.69944 15.06312 35089 ft 448 kts 122°
2026-04-24 13:30 45.66190 15.13413 35085 ft 447 kts 122°
2026-04-24 13:31 45.62428 15.20494 35083 ft 447 kts 123°
2026-04-24 13:31 45.58660 15.27565 35080 ft 447 kts 123°
2026-04-24 13:32 45.54807 15.34538 35079 ft 448 kts 125°
2026-04-24 13:32 45.50745 15.41302 35079 ft 449 kts 126°
2026-04-24 13:33 45.46650 15.48023 35081 ft 448 kts 126°
2026-04-24 13:33 45.42601 15.54768 35078 ft 448 kts 126°
2026-04-24 13:34 45.38574 15.61530 35076 ft 448 kts 126°
2026-04-24 13:34 45.34577 15.68239 35090 ft 448 kts 126°
2026-04-24 13:35 45.30535 15.74972 35081 ft 448 kts 126°
2026-04-24 13:35 45.26486 15.81682 35082 ft 448 kts 126°
2026-04-24 13:36 45.22431 15.88380 35082 ft 447 kts 126°
2026-04-24 13:36 45.18379 15.95067 35089 ft 447 kts 126°
2026-04-24 13:37 45.14331 16.01750 35086 ft 447 kts 126°
2026-04-24 13:37 45.10288 16.08428 35085 ft 447 kts 126°
2026-04-24 13:38 45.06233 16.15086 35087 ft 447 kts 126°
2026-04-24 13:38 45.02168 16.21727 35083 ft 447 kts 126°
2026-04-24 13:39 44.98105 16.28358 35108 ft 446 kts 126°
2026-04-24 13:39 44.94042 16.34988 35094 ft 446 kts 126°
2026-04-24 13:40 44.89981 16.41602 35096 ft 446 kts 126°
2026-04-24 13:40 44.85914 16.48197 35102 ft 446 kts 126°
2026-04-24 13:41 44.81845 16.54779 35094 ft 446 kts 126°
2026-04-24 13:41 44.77777 16.61368 35102 ft 446 kts 126°
2026-04-24 13:42 44.73701 16.67939 35104 ft 446 kts 126°
2026-04-24 13:42 44.69616 16.74494 35101 ft 445 kts 127°
2026-04-24 13:43 44.65565 16.80994 35104 ft 445 kts 126°
2026-04-24 13:43 44.61481 16.87530 35115 ft 445 kts 127°
2026-04-24 13:44 44.57393 16.94054 35100 ft 445 kts 127°
2026-04-24 13:44 44.53311 17.00568 35095 ft 445 kts 127°
2026-04-24 13:45 44.49210 17.07069 35093 ft 445 kts 127°
2026-04-24 13:45 44.45111 17.13554 35109 ft 445 kts 127°
2026-04-24 13:46 44.41017 17.20042 35106 ft 444 kts 127°
2026-04-24 13:46 44.36922 17.26513 35106 ft 444 kts 127°
2026-04-24 13:47 44.32815 17.32975 35099 ft 445 kts 127°
2026-04-24 13:47 44.28699 17.39425 35096 ft 445 kts 127°
2026-04-24 13:48 44.24586 17.45867 35104 ft 445 kts 127°
2026-04-24 13:48 44.20551 17.52310 35099 ft 443 kts 124°
2026-04-24 13:49 44.16751 17.59040 35092 ft 441 kts 123°
2026-04-24 13:49 44.13030 17.65832 35086 ft 441 kts 123°
2026-04-24 13:50 44.09250 17.72568 35101 ft 441 kts 123°
2026-04-24 13:50 44.05430 17.79256 35081 ft 441 kts 124°
2026-04-24 13:51 44.01610 17.85930 35080 ft 441 kts 124°
2026-04-24 13:51 43.97784 17.92608 35079 ft 442 kts 124°
2026-04-24 13:52 43.93957 17.99280 35089 ft 442 kts 124°
2026-04-24 13:52 43.90129 18.05943 35080 ft 442 kts 124°
2026-04-24 13:53 43.86295 18.12589 35068 ft 441 kts 124°
2026-04-24 13:53 43.82463 18.19231 35060 ft 441 kts 124°
2026-04-24 13:54 43.78652 18.25823 35057 ft 441 kts 124°
2026-04-24 13:54 43.74813 18.32447 35055 ft 441 kts 124°
2026-04-24 13:55 43.70971 18.39061 35055 ft 441 kts 124°
2026-04-24 13:55 43.67126 18.45664 35059 ft 441 kts 124°
2026-04-24 13:56 43.63271 18.52257 35073 ft 441 kts 124°
2026-04-24 13:56 43.59414 18.58836 35078 ft 441 kts 124°
2026-04-24 13:57 43.55559 18.65402 35067 ft 440 kts 124°
2026-04-24 13:57 43.51705 18.71964 35067 ft 440 kts 124°
2026-04-24 13:58 43.47845 18.78509 35060 ft 440 kts 124°
2026-04-24 13:58 43.44033 18.85029 35072 ft 440 kts 123°
2026-04-24 13:59 43.40232 18.91617 35069 ft 439 kts 123°
2026-04-24 13:59 43.36430 18.98190 35065 ft 439 kts 123°
2026-04-24 14:00 43.32611 19.04737 35061 ft 439 kts 123°
2026-04-24 14:00 43.28793 19.11267 35056 ft 439 kts 123°
2026-04-24 14:01 43.24967 19.17798 35062 ft 439 kts 124°
2026-04-24 14:01 43.21134 19.24310 35059 ft 439 kts 124°
2026-04-24 14:02 43.17306 19.30816 35049 ft 439 kts 124°
2026-04-24 14:02 43.13465 19.37325 35048 ft 439 kts 124°
2026-04-24 14:03 43.09642 19.43781 35042 ft 439 kts 124°
2026-04-24 14:03 43.06440 19.49185 35048 ft 439 kts 123°
2026-04-24 14:04 43.02590 19.55688 35043 ft 439 kts 123°
2026-04-24 14:04 42.98741 19.62177 35040 ft 439 kts 123°
2026-04-24 14:05 42.94904 19.68625 35032 ft 439 kts 124°
2026-04-24 14:05 42.91029 19.75096 35032 ft 439 kts 124°
2026-04-24 14:06 42.87149 19.81565 35048 ft 439 kts 124°
2026-04-24 14:06 42.83300 19.87993 35041 ft 439 kts 124°
2026-04-24 14:07 42.79428 19.94446 35037 ft 439 kts 124°
2026-04-24 14:07 42.75544 20.00890 35033 ft 440 kts 124°
2026-04-24 14:08 42.71675 20.07288 35023 ft 440 kts 124°
2026-04-24 14:08 42.67785 20.13710 35041 ft 440 kts 124°
2026-04-24 14:09 42.63887 20.20128 35031 ft 440 kts 124°
2026-04-24 14:09 42.59991 20.26537 35016 ft 440 kts 124°
2026-04-24 14:10 42.56092 20.32946 35026 ft 440 kts 124°
2026-04-24 14:10 42.52188 20.39352 35014 ft 440 kts 124°
2026-04-24 14:11 42.48280 20.45732 35009 ft 440 kts 124°
2026-04-24 14:12 42.42406 20.55294 35014 ft 440 kts 124°
2026-04-24 14:12 42.38486 20.61662 35018 ft 440 kts 124°
2026-04-24 14:13 42.34566 20.68026 35013 ft 440 kts 124°
2026-04-24 14:13 42.30667 20.74344 35020 ft 440 kts 124°
2026-04-24 14:14 42.26738 20.80691 35029 ft 440 kts 124°
2026-04-24 14:14 42.20842 20.90177 35027 ft 440 kts 124°
2026-04-24 14:15 42.16907 20.96489 35015 ft 439 kts 124°
2026-04-24 14:15 42.12969 21.02790 35002 ft 439 kts 124°
2026-04-24 14:16 42.09373 21.09365 35002 ft 434 kts 117°
2026-04-24 14:17 42.04346 21.19529 35001 ft 435 kts 118°
2026-04-24 14:17 41.99295 21.29673 35001 ft 435 kts 118°
2026-04-24 14:18 41.95925 21.36428 34996 ft 435 kts 118°
2026-04-24 14:18 41.92555 21.43183 34989 ft 435 kts 118°
2026-04-24 14:19 41.89177 21.49930 34985 ft 435 kts 118°
2026-04-24 14:19 41.85796 21.56658 34969 ft 435 kts 118°
2026-04-24 14:20 41.82407 21.63379 34973 ft 435 kts 118°
2026-04-24 14:20 41.79020 21.70100 34972 ft 435 kts 118°
2026-04-24 14:21 41.75629 21.76814 34972 ft 435 kts 118°
2026-04-24 14:21 41.72232 21.83514 34985 ft 435 kts 118°
2026-04-24 14:22 41.68852 21.90168 34986 ft 435 kts 119°
2026-04-24 14:23 41.63735 22.00219 34977 ft 435 kts 119°
2026-04-24 14:23 41.60326 22.06908 34974 ft 435 kts 119°
2026-04-24 14:24 41.56913 22.13594 34992 ft 435 kts 119°
2026-04-24 14:24 41.53494 22.20274 34987 ft 436 kts 119°
2026-04-24 14:25 41.50065 22.26943 34980 ft 436 kts 119°
2026-04-24 14:25 41.46634 22.33599 34974 ft 435 kts 119°
2026-04-24 14:26 41.43204 22.40256 34974 ft 435 kts 119°
2026-04-24 14:26 41.39787 22.46860 34975 ft 436 kts 119°
2026-04-24 14:27 41.36347 22.53495 34982 ft 435 kts 119°
2026-04-24 14:27 41.32898 22.60131 34969 ft 436 kts 120°
2026-04-24 14:28 41.29444 22.66775 34959 ft 436 kts 120°
2026-04-24 14:28 41.25990 22.73411 34959 ft 437 kts 120°
2026-04-24 14:29 41.22518 22.80037 34959 ft 437 kts 120°
2026-04-24 14:29 41.19021 22.86645 34961 ft 437 kts 120°
2026-04-24 14:30 41.16104 22.92128 34962 ft 437 kts 120°
2026-04-24 14:30 41.12003 22.99842 34963 ft 437 kts 120°
2026-04-24 14:31 41.08498 23.06437 34964 ft 437 kts 120°
2026-04-24 14:31 41.04989 23.13028 34965 ft 438 kts 120°
2026-04-24 14:32 41.01466 23.19613 34962 ft 439 kts 121°
2026-04-24 14:32 40.97930 23.26210 34954 ft 440 kts 121°
2026-04-24 14:33 40.94390 23.32812 34951 ft 440 kts 120°
2026-04-24 14:33 40.90844 23.39417 34954 ft 441 kts 121°
2026-04-24 14:34 40.87309 23.45969 34963 ft 441 kts 121°
2026-04-24 14:34 40.83742 23.52574 34958 ft 442 kts 121°
2026-04-24 14:35 40.80167 23.59177 34957 ft 442 kts 121°
2026-04-24 14:35 40.76583 23.65779 34964 ft 442 kts 121°
2026-04-24 14:36 40.72996 23.72375 34966 ft 443 kts 121°
2026-04-24 14:36 40.69406 23.78968 34976 ft 443 kts 122°
2026-04-24 14:37 40.65797 23.85575 34966 ft 444 kts 122°
2026-04-24 14:37 40.62182 23.92187 34970 ft 445 kts 122°
2026-04-24 14:38 40.58207 23.98467 34968 ft 452 kts 134°
2026-04-24 14:38 40.53474 24.03920 34971 ft 453 kts 135°
2026-04-24 14:39 40.48733 24.09380 34976 ft 453 kts 135°
2026-04-24 14:39 40.43987 24.14841 34980 ft 454 kts 135°
2026-04-24 14:40 40.39239 24.20300 34986 ft 454 kts 135°
2026-04-24 14:40 40.34482 24.25753 34983 ft 454 kts 135°
2026-04-24 14:41 40.29721 24.31200 34986 ft 455 kts 135°
2026-04-24 14:41 40.24951 24.36645 34986 ft 455 kts 135°
2026-04-24 14:42 40.20989 24.41165 34990 ft 455 kts 136°
2026-04-24 14:42 40.15431 24.47484 34989 ft 456 kts 136°
2026-04-24 14:43 40.10641 24.52916 34991 ft 456 kts 136°
2026-04-24 14:43 40.05847 24.58340 34996 ft 456 kts 136°
2026-04-24 14:44 40.01047 24.63754 34993 ft 456 kts 136°
2026-04-24 14:44 39.96249 24.69170 34997 ft 456 kts 136°
2026-04-24 14:45 39.91445 24.74582 34999 ft 456 kts 136°
2026-04-24 14:45 39.86635 24.79982 35003 ft 456 kts 136°
2026-04-24 14:46 39.81855 24.85345 34996 ft 457 kts 137°
2026-04-24 14:46 39.77040 24.90741 34994 ft 457 kts 137°
2026-04-24 14:47 39.73003 24.95257 34996 ft 457 kts 137°
2026-04-24 14:47 39.67393 25.01511 35001 ft 457 kts 137°
2026-04-24 14:48 39.62559 25.06886 34994 ft 458 kts 137°
2026-04-24 14:48 39.58030 25.12641 34996 ft 455 kts 125°
2026-04-24 14:49 39.54321 25.19267 34994 ft 454 kts 124°
2026-04-24 14:49 39.50600 25.25897 34994 ft 455 kts 124°
2026-04-24 14:50 39.47502 25.31395 34988 ft 455 kts 124°
2026-04-24 14:50 39.43771 25.38015 34993 ft 455 kts 124°
2026-04-24 14:51 39.40029 25.44632 34994 ft 456 kts 124°
2026-04-24 14:51 39.36281 25.51246 34991 ft 456 kts 124°
2026-04-24 14:52 39.32529 25.57854 34988 ft 456 kts 124°
2026-04-24 14:52 39.28775 25.64459 34990 ft 456 kts 124°
2026-04-24 14:53 39.25015 25.71062 34986 ft 456 kts 124°
2026-04-24 14:53 39.21252 25.77655 34985 ft 456 kts 124°
2026-04-24 14:54 39.17483 25.84238 34988 ft 456 kts 124°
2026-04-24 14:54 39.13737 25.90779 34983 ft 456 kts 125°
2026-04-24 14:55 39.09964 25.97350 34983 ft 456 kts 124°
2026-04-24 14:55 39.06183 26.03912 34970 ft 456 kts 125°
2026-04-24 14:56 39.02400 26.10470 34972 ft 457 kts 125°
2026-04-24 14:56 38.98612 26.17026 34964 ft 457 kts 124°
2026-04-24 14:57 38.94822 26.23575 34962 ft 457 kts 124°
2026-04-24 14:57 38.91025 26.30116 34960 ft 457 kts 125°
2026-04-24 14:58 38.87226 26.36657 34961 ft 457 kts 126°
2026-04-24 14:58 38.83926 26.43594 34951 ft 456 kts 111°
2026-04-24 14:59 38.82349 26.51423 34950 ft 454 kts 98°
2026-04-24 14:59 38.81380 26.59436 34940 ft 456 kts 99°
2026-04-24 15:00 38.80389 26.67435 34931 ft 459 kts 99°
2026-04-24 15:00 38.79370 26.75577 34939 ft 460 kts 98°
2026-04-24 15:01 38.78360 26.83604 34947 ft 459 kts 98°
2026-04-24 15:01 38.77307 26.91675 34926 ft 460 kts 103°
2026-04-24 15:02 38.74973 26.99268 34918 ft 460 kts 121°
2026-04-24 15:02 38.71241 27.05927 34919 ft 461 kts 128°
2026-04-24 15:03 38.67376 27.12484 34914 ft 462 kts 129°
2026-04-24 15:03 38.63495 27.19059 34908 ft 463 kts 130°
2026-04-24 15:04 38.59602 27.25653 34913 ft 465 kts 130°
2026-04-24 15:04 38.55696 27.32266 34914 ft 466 kts 130°
2026-04-24 15:05 38.51774 27.38875 34911 ft 467 kts 130°
2026-04-24 15:05 38.47846 27.45491 34912 ft 468 kts 130°
2026-04-24 15:06 38.43912 27.52104 34909 ft 469 kts 131°
2026-04-24 15:06 38.39982 27.58683 34910 ft 470 kts 131°
2026-04-24 15:07 38.36017 27.65313 34906 ft 471 kts 131°
2026-04-24 15:07 38.32039 27.71957 34899 ft 472 kts 132°
2026-04-24 15:08 38.28028 27.78597 34903 ft 472 kts 135°
2026-04-24 15:08 38.23230 27.84118 34907 ft 462 kts 150°
2026-04-24 15:09 38.17966 27.88823 34910 ft 462 kts 150°
2026-04-24 15:09 38.12702 27.93537 34911 ft 463 kts 150°
2026-04-24 15:10 38.07435 27.98247 34909 ft 463 kts 150°
2026-04-24 15:10 38.02197 28.02922 34911 ft 463 kts 151°
2026-04-24 15:11 37.96932 28.07620 34901 ft 462 kts 152°
2026-04-24 15:11 37.91675 28.12302 34888 ft 462 kts 152°
2026-04-24 15:12 37.86416 28.16978 34908 ft 462 kts 152°
2026-04-24 15:12 37.81153 28.21640 34676 ft 463 kts 152°
2026-04-24 15:12 37.78499 28.23985 33566 ft 470 kts 153°
2026-04-24 15:13 37.75814 28.26352 32598 ft 469 kts 153°
2026-04-24 15:13 37.73142 28.28710 31566 ft 470 kts 153°
2026-04-24 15:13 37.70463 28.31075 30579 ft 470 kts 153°
2026-04-24 15:13 37.67785 28.33439 29405 ft 470 kts 152°
2026-04-24 15:14 37.65136 28.35784 28240 ft 458 kts 152°
2026-04-24 15:14 37.62544 28.38081 27151 ft 456 kts 151°
2026-04-24 15:14 37.59930 28.40385 25932 ft 461 kts 150°
2026-04-24 15:14 37.57278 28.42711 24712 ft 466 kts 150°
2026-04-24 15:15 37.54608 28.45049 23563 ft 469 kts 150°
2026-04-24 15:15 37.51913 28.47396 22341 ft 470 kts 151°
2026-04-24 15:15 37.49099 28.49399 21514 ft 459 kts 159°
2026-04-24 15:15 37.46157 28.50839 20675 ft 449 kts 167°
2026-04-24 15:16 37.43165 28.51815 19856 ft 443 kts 170°
2026-04-24 15:16 37.40183 28.52741 19052 ft 440 kts 169°
2026-04-24 15:16 37.37225 28.53663 18292 ft 437 kts 169°
2026-04-24 15:16 37.34318 28.54570 18042 ft 422 kts 169°
2026-04-24 15:17 37.31530 28.55443 17916 ft 405 kts 169°
2026-04-24 15:17 37.28852 28.56283 17770 ft 390 kts 169°
2026-04-24 15:17 37.26265 28.57090 17633 ft 376 kts 170°
2026-04-24 15:17 37.23773 28.57863 17493 ft 362 kts 170°
2026-04-24 15:18 37.21374 28.58604 17362 ft 349 kts 170°
2026-04-24 15:18 37.19057 28.59322 17231 ft 337 kts 170°
2026-04-24 15:18 37.16815 28.60018 17099 ft 327 kts 170°
2026-04-24 15:18 37.14702 28.60954 16972 ft 323 kts 153°
2026-04-24 15:19 37.13051 28.62847 16766 ft 325 kts 126°
2026-04-24 15:19 37.12193 28.65479 16282 ft 335 kts 98°
2026-04-24 15:19 37.12357 28.68370 16013 ft 332 kts 79°
2026-04-24 15:19 37.12779 28.71207 15571 ft 329 kts 79°
2026-04-24 15:20 37.13184 28.74016 14963 ft 326 kts 80°
2026-04-24 15:20 37.13577 28.76803 14408 ft 323 kts 80°
2026-04-24 15:20 37.13959 28.79555 13913 ft 318 kts 81°
2026-04-24 15:20 37.14334 28.82270 13303 ft 315 kts 81°
2026-04-24 15:21 37.14704 28.84945 12804 ft 308 kts 81°
2026-04-24 15:21 37.15071 28.87576 12381 ft 306 kts 81°
2026-04-24 15:21 37.15442 28.90213 11929 ft 308 kts 81°
2026-04-24 15:21 37.15596 28.92859 11627 ft 303 kts 96°
2026-04-24 15:22 37.15108 28.95399 11313 ft 297 kts 115°
2026-04-24 15:22 37.14081 28.97592 10820 ft 289 kts 133°
2026-04-24 15:22 37.12654 28.99319 10268 ft 283 kts 141°
2026-04-24 15:23 37.09740 29.02556 9367 ft 277 kts 141°
2026-04-24 15:23 37.06734 29.05104 8949 ft 244 kts 169°
2026-04-24 15:23 37.05051 29.05251 8734 ft 242 kts 191°
2026-04-24 15:24 37.00627 29.02403 7237 ft 244 kts 211°
2026-04-24 15:25 36.98148 29.00587 6415 ft 253 kts 210°
2026-04-24 15:25 36.94729 28.98082 5471 ft 234 kts 210°
2026-04-24 15:26 36.90986 28.94346 4338 ft 222 kts 219°
2026-04-24 15:27 36.87674 28.90833 3533 ft 199 kts 219°
2026-04-24 15:27 36.84511 28.87881 3090 ft 175 kts 210°
2026-04-24 15:28 36.80681 28.85092 2090 ft 141 kts 208°
2026-04-24 15:29 36.79030 28.83878 1684 ft 137 kts 213°
2026-04-24 15:30 36.76732 28.81789 1028 ft 135 kts 214°
2026-04-24 15:31 36.73612 28.80020 262 ft 135 kts 195°
2026-04-24 15:32 36.70875 28.79098 31 ft 45 kts 195°
2026-04-24 15:33 36.70630 28.78805 30 ft 7 kts 12°
2026-04-24 15:33 36.70903 28.78898 29 ft 21 kts 15°
2026-04-24 15:34 36.71204 28.79004 29 ft 24 kts 15°
2026-04-24 15:35 36.71741 28.79183 29 ft 28 kts 14°
2026-04-24 15:35 36.72121 28.79312 29 ft 28 kts 15°
2026-04-24 15:35 36.72240 28.79350 29 ft 10 kts
2026-04-24 15:36 36.72284 28.79308 29 ft 8 kts 288°
2026-04-24 15:36 36.72315 28.79172 28 ft 6 kts 276°
2026-04-24 15:36 36.72320 28.79131 28 ft 4 kts 284°
2026-04-24 15:37 36.72324 28.79111 28 ft 0 kts 286°
2026-04-24 15:37 36.72325 28.79107 28 ft 3 kts 285°
2026-04-24 15:37 36.72326 28.79102 28 ft 0 kts 285°